Time,TemperatureF,DewpointF,PressureIn,WindDirection,WindDirectionDegrees,WindSpeedMPH,WindSpeedGustMPH,Humidity,HourlyPrecipIn,Conditions,Clouds,dailyrainin,SoftwareType,DateUTC
2013-04-06 00:02:00,52.0,41.0,30.01,NW,304,16.0,28.0,67,0.00,,,0.00,,2013-04-06 07:02:00,
2013-04-06 00:11:00,52.0,41.0,30.01,NW,304,16.0,28.0,67,0.00,,,0.00,,2013-04-06 07:11:00,
2013-04-06 00:22:00,52.0,41.0,30.01,WNW,286,13.0,22.0,67,0.00,,,0.00,,2013-04-06 07:22:00,
2013-04-06 00:32:00,52.0,42.0,30.01,NW,305,12.0,19.0,68,0.00,,,0.00,,2013-04-06 07:32:00,
2013-04-06 00:42:00,52.0,42.0,30.01,NW,305,12.0,19.0,68,0.00,,,0.00,,2013-04-06 07:42:00,
2013-04-06 00:52:00,52.0,41.0,30.01,West,263,18.0,24.0,67,0.00,,,0.00,,2013-04-06 07:52:00,
2013-04-06 01:02:00,52.0,42.0,30.01,WSW,246,14.0,28.0,68,0.00,,,0.00,,2013-04-06 08:02:00,
2013-04-06 01:12:00,52.0,42.0,30.01,WSW,246,14.0,28.0,68,0.00,,,0.00,,2013-04-06 08:12:00,
2013-04-06 01:22:00,52.0,42.0,30.01,West,277,15.0,26.0,69,0.00,,,0.00,,2013-04-06 08:22:00,
2013-04-06 01:32:00,52.0,43.0,30.01,West,279,18.0,27.0,70,0.00,,,0.00,,2013-04-06 08:32:00,
2013-04-06 01:42:00,52.0,43.0,30.01,West,279,18.0,27.0,70,0.00,,,0.00,,2013-04-06 08:42:00,
2013-04-06 01:52:00,51.0,41.0,30.00,West,272,16.0,28.0,69,0.00,,,0.00,,2013-04-06 08:52:00,
2013-04-06 02:01:00,51.0,41.0,30.01,West,278,13.0,27.0,69,0.00,,,0.00,,2013-04-06 09:01:00,
2013-04-06 02:12:00,51.0,41.0,30.01,West,278,13.0,27.0,69,0.00,,,0.00,,2013-04-06 09:12:00,
2013-04-06 02:21:00,51.0,41.0,30.00,WSW,254,15.0,28.0,69,0.00,,,0.00,,2013-04-06 09:21:00,
2013-04-06 02:32:00,51.0,42.0,29.99,WNW,286,13.0,25.0,70,0.00,,,0.00,,2013-04-06 09:32:00,
2013-04-06 02:42:00,51.0,42.0,29.99,WNW,286,13.0,25.0,70,0.00,,,0.00,,2013-04-06 09:42:00,
2013-04-06 02:53:00,51.0,42.0,29.98,West,272,19.0,26.0,70,0.00,,,0.00,,2013-04-06 09:53:00,
2013-04-06 03:02:00,51.0,42.0,29.98,West,266,18.0,25.0,71,0.00,,,0.00,,2013-04-06 10:02:00,
2013-04-06 03:12:00,51.0,42.0,29.98,West,266,18.0,25.0,71,0.00,,,0.00,,2013-04-06 10:12:00,
2013-04-06 03:22:00,51.0,42.0,29.98,West,273,19.0,32.0,70,0.00,,,0.00,,2013-04-06 10:22:00,
2013-04-06 03:32:00,51.0,41.0,29.99,West,281,23.0,45.0,69,0.00,,,0.00,,2013-04-06 10:32:00,
2013-04-06 03:42:00,51.0,41.0,29.99,West,281,23.0,45.0,69,0.00,,,0.00,,2013-04-06 10:42:00,
2013-04-06 03:52:00,50.0,41.0,29.99,West,269,16.0,33.0,71,0.00,,,0.00,,2013-04-06 10:52:00,
2013-04-06 04:02:00,50.0,41.0,29.98,West,271,18.0,26.0,72,0.00,,,0.00,,2013-04-06 11:02:00,
2013-04-06 04:12:00,50.0,41.0,29.98,West,271,18.0,26.0,72,0.00,,,0.00,,2013-04-06 11:12:00,
2013-04-06 04:22:00,50.0,41.0,29.98,WNW,290,26.0,35.0,72,0.00,,,0.00,,2013-04-06 11:22:00,
2013-04-06 04:32:00,49.0,41.0,29.98,WNW,284,19.0,29.0,73,0.00,,,0.00,,2013-04-06 11:32:00,
2013-04-06 04:42:00,49.0,41.0,29.98,WNW,284,19.0,29.0,73,0.00,,,0.00,,2013-04-06 11:42:00,
2013-04-06 04:52:00,49.0,41.0,29.97,West,281,16.0,28.0,74,0.00,,,0.00,,2013-04-06 11:52:00,
2013-04-06 05:01:00,48.0,40.0,29.98,WNW,301,17.0,29.0,75,0.00,,,0.00,,2013-04-06 12:01:00,
2013-04-06 05:11:00,48.0,40.0,29.98,WNW,301,17.0,29.0,75,0.00,,,0.00,,2013-04-06 12:11:00,
2013-04-06 05:21:00,49.0,41.0,29.98,West,271,17.0,33.0,73,0.00,,,0.00,,2013-04-06 12:21:00,
2013-04-06 05:32:00,48.0,40.0,29.99,West,263,17.0,26.0,74,0.00,,,0.00,,2013-04-06 12:32:00,
2013-04-06 05:42:00,48.0,40.0,29.99,West,263,17.0,26.0,74,0.00,,,0.00,,2013-04-06 12:42:00,
2013-04-06 05:52:00,48.0,40.0,29.99,WNW,293,20.0,30.0,74,0.00,,,0.00,,2013-04-06 12:52:00,
2013-04-06 06:02:00,48.0,40.0,29.99,WSW,254,15.0,29.0,74,0.00,,,0.00,,2013-04-06 13:02:00,
2013-04-06 06:11:00,48.0,40.0,29.99,WSW,254,15.0,29.0,74,0.00,,,0.00,,2013-04-06 13:11:00,
2013-04-06 06:23:00,48.0,40.0,29.98,West,274,18.0,26.0,74,0.00,,,0.00,,2013-04-06 13:23:00,
2013-04-06 06:32:00,48.0,40.0,30.00,West,271,19.0,26.0,75,0.00,,,0.00,,2013-04-06 13:32:00,
2013-04-06 06:42:00,48.0,40.0,30.00,West,271,19.0,26.0,75,0.00,,,0.00,,2013-04-06 13:42:00,
2013-04-06 06:53:00,48.0,40.0,30.01,SW,228,12.0,27.0,73,0.00,,,0.00,,2013-04-06 13:53:00,
2013-04-06 07:02:00,49.0,40.0,30.01,WNW,288,14.0,33.0,71,0.00,,,0.00,,2013-04-06 14:02:00,
2013-04-06 07:12:00,49.0,40.0,30.01,WNW,288,14.0,33.0,71,0.00,,,0.00,,2013-04-06 14:12:00,
2013-04-06 07:22:00,48.0,39.0,30.03,WNW,284,6.0,28.0,72,0.00,,,0.00,,2013-04-06 14:22:00,
2013-04-06 07:32:00,49.0,40.0,30.05,West,263,9.0,16.0,72,0.00,,,0.00,,2013-04-06 14:32:00,
2013-04-06 07:42:00,49.0,40.0,30.05,West,263,9.0,16.0,72,0.00,,,0.00,,2013-04-06 14:42:00,
2013-04-06 07:52:00,49.0,40.0,30.06,West,279,13.0,19.0,71,0.00,,,0.00,,2013-04-06 14:52:00,
2013-04-06 08:01:00,50.0,40.0,30.06,West,274,10.0,18.0,69,0.00,,,0.00,,2013-04-06 15:01:00,
2013-04-06 08:11:00,50.0,40.0,30.06,West,274,10.0,18.0,69,0.00,,,0.00,,2013-04-06 15:11:00,
2013-04-06 08:22:00,50.0,40.0,30.05,NW,309,17.0,31.0,68,0.00,,,0.00,,2013-04-06 15:22:00,
2013-04-06 08:32:00,51.0,40.0,30.03,NW,309,12.0,29.0,66,0.00,,,0.00,,2013-04-06 15:32:00,
2013-04-06 08:42:00,51.0,40.0,30.03,NW,309,12.0,29.0,66,0.00,,,0.00,,2013-04-06 15:42:00,
2013-04-06 08:53:00,52.0,39.0,30.02,WNW,287,20.0,29.0,62,0.00,,,0.00,,2013-04-06 15:53:00,
2013-04-06 09:03:00,53.0,39.0,30.02,West,273,20.0,31.0,60,0.00,,,0.00,,2013-04-06 16:03:00,
2013-04-06 09:16:00,53.0,39.0,30.02,West,273,20.0,31.0,60,0.00,,,0.00,,2013-04-06 16:16:00,
2013-04-06 09:22:00,53.0,39.0,30.02,West,265,22.0,32.0,58,0.00,,,0.00,,2013-04-06 16:22:00,
2013-04-06 09:32:00,53.0,39.0,30.03,West,269,20.0,34.0,60,0.00,,,0.00,,2013-04-06 16:32:00,
2013-04-06 09:41:00,53.0,39.0,30.03,West,269,20.0,34.0,60,0.00,,,0.00,,2013-04-06 16:41:00,
2013-04-06 09:53:00,54.0,40.0,30.02,WSW,249,22.0,32.0,59,0.00,,,0.00,,2013-04-06 16:53:00,
2013-04-06 10:02:00,54.0,40.0,30.02,West,271,22.0,31.0,58,0.00,,,0.00,,2013-04-06 17:02:00,
2013-04-06 10:12:00,54.0,40.0,30.02,West,271,22.0,31.0,58,0.00,,,0.00,,2013-04-06 17:12:00,
2013-04-06 10:22:00,55.0,40.0,30.02,West,278,17.0,33.0,56,0.00,,,0.00,,2013-04-06 17:22:00,
2013-04-06 10:32:00,55.0,40.0,30.02,WNW,288,21.0,32.0,56,0.00,,,0.00,,2013-04-06 17:32:00,
2013-04-06 10:42:00,55.0,40.0,30.02,WNW,288,21.0,32.0,56,0.00,,,0.00,,2013-04-06 17:42:00,
2013-04-06 10:52:00,55.0,40.0,30.02,West,273,21.0,33.0,56,0.00,,,0.00,,2013-04-06 17:52:00,
2013-04-06 11:02:00,56.0,40.0,30.04,West,272,18.0,29.0,54,0.00,,,0.00,,2013-04-06 18:02:00,
2013-04-06 11:12:00,56.0,40.0,30.04,West,272,18.0,29.0,54,0.00,,,0.00,,2013-04-06 18:12:00,
2013-04-06 11:22:00,56.0,39.0,30.04,WSW,250,17.0,32.0,52,0.00,,,0.00,,2013-04-06 18:22:00,
2013-04-06 11:32:00,56.0,37.0,30.05,WNW,288,17.0,27.0,48,0.00,,,0.00,,2013-04-06 18:32:00,
2013-04-06 11:42:00,56.0,37.0,30.05,WNW,288,17.0,27.0,48,0.00,,,0.00,,2013-04-06 18:42:00,
2013-04-06 11:52:00,57.0,36.0,30.05,NW,314,13.0,23.0,45,0.00,,,0.00,,2013-04-06 18:52:00,
2013-04-06 12:02:00,60.0,36.0,30.04,WSW,246,12.0,17.0,40,0.00,,,0.00,,2013-04-06 19:02:00,
2013-04-06 12:12:00,60.0,36.0,30.04,WSW,246,12.0,17.0,40,0.00,,,0.00,,2013-04-06 19:12:00,
2013-04-06 12:22:00,61.0,35.0,30.03,West,274,11.0,20.0,37,0.00,,,0.00,,2013-04-06 19:22:00,
2013-04-06 12:32:00,62.0,33.0,30.02,WNW,288,8.0,23.0,34,0.00,,,0.00,,2013-04-06 19:32:00,
2013-04-06 12:42:00,62.0,33.0,30.02,WNW,288,8.0,23.0,34,0.00,,,0.00,,2013-04-06 19:42:00,
2013-04-06 12:53:00,63.0,33.0,30.01,WNW,301,17.0,27.0,32,0.00,,,0.00,,2013-04-06 19:53:00,
2013-04-06 13:02:00,63.0,33.0,30.01,WSW,257,12.0,28.0,33,0.00,,,0.00,,2013-04-06 20:02:00,
2013-04-06 13:12:00,63.0,33.0,30.01,WSW,257,12.0,28.0,33,0.00,,,0.00,,2013-04-06 20:12:00,
2013-04-06 13:22:00,63.0,33.0,30.02,WNW,293,15.0,24.0,33,0.00,,,0.00,,2013-04-06 20:22:00,
2013-04-06 13:31:00,63.0,36.0,30.01,WNW,288,13.0,22.0,36,0.00,,,0.00,,2013-04-06 20:31:00,
2013-04-06 13:41:00,63.0,36.0,30.01,WNW,288,13.0,22.0,36,0.00,,,0.00,,2013-04-06 20:41:00,
2013-04-06 13:52:00,63.0,34.0,30.01,West,281,16.0,25.0,34,0.00,,,0.00,,2013-04-06 20:52:00,
2013-04-06 14:01:00,64.0,35.0,30.02,WNW,288,13.0,19.0,34,0.00,,,0.00,,2013-04-06 21:01:00,
2013-04-06 14:12:00,64.0,35.0,30.00,West,273,14.0,25.0,34,0.00,,,0.00,,2013-04-06 21:12:00,
2013-04-06 14:22:00,64.0,35.0,30.00,West,273,14.0,25.0,34,0.00,,,0.00,,2013-04-06 21:22:00,
2013-04-06 14:33:00,64.0,34.0,29.99,West,259,14.0,24.0,32,0.00,,,0.00,,2013-04-06 21:33:00,
2013-04-06 14:43:00,64.0,34.0,29.99,West,259,14.0,24.0,32,0.00,,,0.00,,2013-04-06 21:43:00,
2013-04-06 14:52:00,65.0,33.0,30.00,WNW,293,14.0,24.0,30,0.00,,,0.00,,2013-04-06 21:52:00,
2013-04-06 15:02:00,66.0,31.0,30.01,WSW,251,19.0,25.0,27,0.00,,,0.00,,2013-04-06 22:02:00,
2013-04-06 15:12:00,66.0,31.0,30.01,WSW,251,19.0,25.0,27,0.00,,,0.00,,2013-04-06 22:12:00,
2013-04-06 15:22:00,63.0,30.0,29.98,West,269,15.0,27.0,29,0.00,,,0.00,,2013-04-06 22:22:00,
2013-04-06 15:33:00,64.0,30.0,29.98,West,268,18.0,29.0,28,0.00,,,0.00,,2013-04-06 22:33:00,
2013-04-06 15:42:00,64.0,30.0,29.98,West,268,18.0,29.0,28,0.00,,,0.00,,2013-04-06 22:42:00,
2013-04-06 15:53:00,64.0,31.0,29.98,NW,309,10.0,22.0,29,0.00,,,0.00,,2013-04-06 22:53:00,
2013-04-06 16:02:00,62.0,30.0,30.00,West,278,19.0,29.0,30,0.00,,,0.00,,2013-04-06 23:02:00,
2013-04-06 16:12:00,62.0,30.0,30.00,West,278,19.0,29.0,30,0.00,,,0.00,,2013-04-06 23:12:00,
2013-04-06 16:22:00,61.0,36.0,30.00,WSW,256,19.0,29.0,40,0.00,,,0.00,,2013-04-06 23:22:00,
2013-04-06 16:32:00,61.0,36.0,30.00,WSW,256,19.0,29.0,40,0.00,,,0.00,,2013-04-06 23:32:00,
2013-04-06 16:42:00,61.0,36.0,30.00,WSW,256,19.0,29.0,40,0.00,,,0.00,,2013-04-06 23:42:00,
2013-04-06 16:53:00,59.0,35.0,29.96,WNW,298,20.0,31.0,41,0.00,,,0.00,,2013-04-06 23:53:00,
2013-04-06 17:01:00,59.0,37.0,29.98,West,269,19.0,33.0,44,0.00,,,0.00,,2013-04-07 00:01:00,
2013-04-06 17:12:00,59.0,37.0,29.98,West,269,19.0,33.0,44,0.00,,,0.00,,2013-04-07 00:12:00,
2013-04-06 17:22:00,60.0,36.0,29.95,NNW,329,15.0,30.0,41,0.00,,,0.00,,2013-04-07 00:22:00,
2013-04-06 17:32:00,59.0,35.0,29.96,SW,229,19.0,33.0,40,0.00,,,0.00,,2013-04-07 00:32:00,
2013-04-06 17:42:00,59.0,35.0,29.96,SW,229,19.0,33.0,40,0.00,,,0.00,,2013-04-07 00:42:00,
2013-04-06 17:53:00,60.0,34.0,29.98,WSW,251,17.0,28.0,37,0.00,,,0.00,,2013-04-07 00:53:00,
2013-04-06 18:01:00,60.0,32.0,29.96,SW,234,11.0,21.0,34,0.00,,,0.00,,2013-04-07 01:01:00,
2013-04-06 18:12:00,60.0,32.0,29.96,SW,234,11.0,21.0,34,0.00,,,0.00,,2013-04-07 01:12:00,
2013-04-06 18:22:00,58.0,32.0,29.97,West,259,18.0,25.0,37,0.00,,,0.00,,2013-04-07 01:22:00,
2013-04-06 18:31:00,59.0,33.0,29.97,West,273,18.0,30.0,38,0.00,,,0.00,,2013-04-07 01:31:00,
2013-04-06 18:42:00,59.0,33.0,29.97,West,273,18.0,30.0,38,0.00,,,0.00,,2013-04-07 01:42:00,
2013-04-06 18:53:00,57.0,33.0,29.97,WSW,255,14.0,28.0,40,0.00,,,0.00,,2013-04-07 01:53:00,
2013-04-06 19:02:00,57.0,35.0,29.96,West,267,21.0,32.0,43,0.00,,,0.00,,2013-04-07 02:02:00,
2013-04-06 19:12:00,57.0,35.0,29.96,West,267,21.0,32.0,43,0.00,,,0.00,,2013-04-07 02:12:00,
2013-04-06 19:22:00,56.0,35.0,29.96,WNW,300,22.0,31.0,45,0.00,,,0.00,,2013-04-07 02:22:00,
2013-04-06 19:32:00,56.0,34.0,29.96,West,274,20.0,29.0,44,0.00,,,0.00,,2013-04-07 02:32:00,
2013-04-06 19:42:00,56.0,34.0,29.96,West,274,20.0,29.0,44,0.00,,,0.00,,2013-04-07 02:42:00,
2013-04-06 19:52:00,55.0,33.0,29.97,WNW,299,16.0,29.0,44,0.00,,,0.00,,2013-04-07 02:52:00,
2013-04-06 20:01:00,56.0,33.0,29.96,West,279,17.0,31.0,42,0.00,,,0.00,,2013-04-07 03:01:00,
2013-04-06 20:12:00,56.0,33.0,29.96,West,279,17.0,31.0,42,0.00,,,0.00,,2013-04-07 03:12:00,
2013-04-06 20:22:00,56.0,33.0,29.97,West,269,17.0,25.0,41,0.00,,,0.00,,2013-04-07 03:22:00,
2013-04-06 20:33:00,56.0,33.0,29.98,West,269,14.0,23.0,42,0.00,,,0.00,,2013-04-07 03:33:00,
2013-04-06 20:42:00,56.0,33.0,29.98,West,269,14.0,23.0,42,0.00,,,0.00,,2013-04-07 03:42:00,
2013-04-06 20:53:00,55.0,33.0,29.98,West,276,21.0,27.0,44,0.00,,,0.00,,2013-04-07 03:53:00,
2013-04-06 21:02:00,54.0,34.0,29.97,WNW,292,15.0,23.0,46,0.00,,,0.00,,2013-04-07 04:02:00,
2013-04-06 21:12:00,54.0,34.0,29.97,WNW,292,15.0,23.0,46,0.00,,,0.00,,2013-04-07 04:12:00,
2013-04-06 21:23:00,55.0,33.0,29.98,WNW,300,18.0,26.0,44,0.00,,,0.00,,2013-04-07 04:23:00,
2013-04-06 21:32:00,55.0,34.0,29.97,WNW,292,16.0,42.0,45,0.00,,,0.00,,2013-04-07 04:32:00,
2013-04-06 21:43:00,55.0,34.0,29.97,WNW,292,16.0,42.0,45,0.00,,,0.00,,2013-04-07 04:43:00,
2013-04-06 21:52:00,54.0,34.0,29.99,West,279,15.0,26.0,47,0.00,,,0.00,,2013-04-07 04:52:00,
2013-04-06 22:01:00,54.0,34.0,29.99,WNW,303,18.0,32.0,47,0.00,,,0.00,,2013-04-07 05:01:00,
2013-04-06 22:12:00,54.0,34.0,29.99,WNW,303,18.0,32.0,47,0.00,,,0.00,,2013-04-07 05:12:00,
2013-04-06 22:22:00,54.0,34.0,30.00,WNW,285,15.0,28.0,46,0.00,,,0.00,,2013-04-07 05:22:00,
2013-04-06 22:32:00,54.0,34.0,29.99,WSW,257,20.0,28.0,47,0.00,,,0.00,,2013-04-07 05:32:00,
2013-04-06 22:42:00,54.0,34.0,29.99,WSW,257,20.0,28.0,47,0.00,,,0.00,,2013-04-07 05:42:00,
2013-04-06 22:52:00,54.0,35.0,30.00,West,278,13.0,26.0,48,0.00,,,0.00,,2013-04-07 05:52:00,
2013-04-06 23:01:00,54.0,35.0,29.99,West,275,17.0,23.0,49,0.00,,,0.00,,2013-04-07 06:01:00,
2013-04-06 23:12:00,54.0,35.0,29.99,West,275,17.0,23.0,49,0.00,,,0.00,,2013-04-07 06:12:00,
2013-04-06 23:21:00,54.0,35.0,29.98,West,277,19.0,26.0,48,0.00,,,0.00,,2013-04-07 06:21:00,
2013-04-06 23:32:00,54.0,36.0,29.97,West,267,16.0,22.0,50,0.00,,,0.00,,2013-04-07 06:32:00,
2013-04-06 23:42:00,54.0,36.0,29.97,West,267,16.0,22.0,50,0.00,,,0.00,,2013-04-07 06:42:00,
2013-04-06 23:52:00,54.0,36.0,29.96,NW,304,20.0,27.0,51,0.00,,,0.00,,2013-04-07 06:52:00,